Voltar ao catálogo

OPS 4682 DEB

LostPO
NORAD 38432·DEBRIS·🇺🇸 United States

Lançado Apr 3, 1965 de Vandenberg Space Force Base

Loading…

Próximas Passagens (próximas 24 horas)

TLE

ObsoletoSource: Space-Track

Época: Mar 6, 2019, 03:04 UTC

1 38432U 65027EM  19065.12823426  .00000036  00000-0  10000-3 0  9992
2 38432  90.3225 307.7828 0039638 201.7755 162.0525 12.97696286641259

Acompanhe OPS 4682 DEB em tempo real com AllMySat

Download on the App Store